Menomonie, WI

2:59 PM CST on December 09, 2019 (GMT -0600)
Menomonie

Weather History for KLUM - October, 2019

Change the Weather History Date:

Friday, October 18, 2019

  Actual Average (KEAU) Record (KEAU)
Temperature  
Mean Temperature 47 °F -  
Max Temperature 61 °F 52 °F 85 °F (1950)
Min Temperature 33 °F 34 °F 12 °F (1896)
Degree Days  
Heating Degree Days 18    
Moisture  
Dew Point 37 °F    
Average Humidity 72    
Maximum Humidity 99    
Minimum Humidity 44    
Precipitation  
Precipitation 0.00 in - - ()
Sea Level Pressure  
Sea Level Pressure 29.79 in    
Wind  
Wind Speed 10 mph (SE)    
Max Wind Speed 23 mph    
Max Gust Speed 31 mph    
Visibility 10 miles    
Events      
Averages and records for this station are not official NWS values.
T = Trace of Precipitation, MM = Missing Value Source: NWS Daily Summary

Daily Weather History Graph

Daily Weather History Graph

Search for Another Location

Airport or City:

Astronomy

Oct. 18, 2019 Rise Set
Actual Time 7:26 AM CDT 6:17 PM CDT
Civil Twilight 6:57 AM CDT 6:47 PM CDT
Nautical Twilight 6:22 AM CDT 7:21 PM CDT
Astronomical Twilight 5:49 AM CDT 7:55 PM CDT
Moon 9:24 PM CDT (10/18) 12:09 PM CDT (10/18)
Length of Visible Light 11h 50m
Length of Day
10h 51m
Waning Gibbous, 78% of the Moon is Illuminated
Oct 18
Waning Gibbous
Oct 21
Last Quarter
Oct 27
New
Nov 4
First Quarter
Nov 12
Full

Hourly Weather History & Observations

Time (CDT) Temp. Windchill Dew Point Humidity Pressure Visibility Wind Dir Wind Speed Gust Speed Precip Events Conditions
12:15 AM 35.8 °F 30.9 °F 34.7 °F 96% 29.96 in 10.0 mi ESE 5.8 mph - N/A   Clear
12:35 AM 34.7 °F 30.6 °F 34.0 °F 97% 29.96 in 10.0 mi ESE 4.6 mph - N/A   Clear
12:55 AM 34.7 °F 30.6 °F 34.0 °F 97% 29.95 in 10.0 mi ESE 4.6 mph - N/A   Clear
1:15 AM 34.7 °F 30.6 °F 34.2 °F 98% 29.95 in 10.0 mi ESE 4.6 mph - N/A   Clear
1:35 AM 34.5 °F 29.4 °F 33.8 °F 97% 29.94 in 10.0 mi ESE 5.8 mph - N/A   Clear
1:55 AM 34.0 °F 29.8 °F 33.4 °F 98% 29.95 in 10.0 mi ESE 4.6 mph - N/A   Clear
2:15 AM 34.5 °F 29.4 °F 34.0 °F 98% 29.95 in 10.0 mi ESE 5.8 mph - N/A   Clear
2:35 AM 33.6 °F 27.5 °F 33.3 °F 99% 29.94 in 10.0 mi ESE 6.9 mph - N/A   Clear
2:55 AM 34.3 °F 28.4 °F 34.0 °F 99% 29.93 in 10.0 mi ESE 6.9 mph - N/A   Clear
3:15 AM 33.8 °F 28.6 °F 33.4 °F 99% 29.93 in 10.0 mi ESE 5.8 mph - N/A   Clear
3:35 AM 34.3 °F 29.2 °F 34.0 °F 99% 29.92 in 10.0 mi ESE 5.8 mph - N/A   Clear
3:55 AM 34.5 °F 28.6 °F 33.8 °F 97% 29.91 in 10.0 mi ESE 6.9 mph - N/A   Clear
4:15 AM 35.1 °F 29.3 °F 34.5 °F 98% 29.91 in 10.0 mi ESE 6.9 mph - N/A   Clear
4:35 AM 35.2 °F 29.5 °F 34.3 °F 97% 29.91 in 10.0 mi ESE 6.9 mph - N/A   Clear
4:55 AM 34.3 °F 28.4 °F 34.0 °F 99% 29.91 in 10.0 mi ESE 6.9 mph - N/A   Clear
5:15 AM 34.3 °F 29.2 °F 33.8 °F 98% 29.91 in 10.0 mi East 5.8 mph - N/A   Clear
5:35 AM 34.3 °F 29.2 °F 33.8 °F 98% 29.90 in 10.0 mi ESE 5.8 mph - N/A   Clear
5:55 AM 34.0 °F 28.8 °F 33.8 °F 99% 29.90 in 10.0 mi ESE 5.8 mph - N/A   Clear
6:15 AM 34.7 °F 29.6 °F 34.2 °F 98% 29.90 in 10.0 mi ESE 5.8 mph - N/A   Clear
6:55 AM 35.1 °F 29.3 °F 34.5 °F 98% 29.88 in 10.0 mi ESE 6.9 mph - N/A   Clear
7:15 AM 35.6 °F 29.9 °F 34.7 °F 97% 29.88 in 10.0 mi ESE 6.9 mph - N/A   Clear
7:35 AM 35.4 °F 29.0 °F 34.7 °F 97% 29.87 in 10.0 mi ESE 8.1 mph - N/A   Clear
7:55 AM 35.8 °F 28.8 °F 34.9 °F 97% 29.87 in 10.0 mi East 9.2 mph - N/A   Clear
8:15 AM 36.7 °F 29.9 °F 35.6 °F 96% 29.87 in 10.0 mi ESE 9.2 mph - N/A   Clear
8:35 AM 38.3 °F 30.9 °F 36.1 °F 92% 29.86 in 10.0 mi ESE 11.5 mph - N/A   Clear
8:55 AM 39.4 °F 32.3 °F 36.5 °F 89% 29.86 in 10.0 mi ESE 11.5 mph - N/A   Clear
9:15 AM 41.2 °F 34.5 °F 37.2 °F 86% 29.85 in 10.0 mi ESE 11.5 mph - N/A   Clear
9:35 AM 42.8 °F 35.8 °F 36.9 °F 80% 29.85 in 10.0 mi SE 13.8 mph 18.4 mph N/A   Clear
9:55 AM 44.1 °F 37.4 °F 36.9 °F 76% 29.84 in 10.0 mi ESE 13.8 mph 17.3 mph N/A   Clear
10:15 AM 45.5 °F 39.9 °F 37.0 °F 72% 29.84 in 10.0 mi ESE 11.5 mph 18.4 mph N/A   Clear
10:35 AM 47.7 °F - 37.6 °F 68% 29.83 in 10.0 mi SE 15.0 mph 20.7 mph N/A   Clear
10:55 AM 48.6 °F - 37.6 °F 66% 29.82 in 10.0 mi SE 16.1 mph 21.9 mph N/A   Clear
11:15 AM 49.1 °F - 37.6 °F 64% 29.81 in 10.0 mi SE 16.1 mph 26.5 mph N/A   Clear
11:35 AM 50.2 °F - 38.3 °F 64% 29.80 in 10.0 mi ESE 15.0 mph 21.9 mph N/A   Clear
11:55 AM 50.9 °F - 38.3 °F 62% 29.79 in 10.0 mi ESE 16.1 mph 23.0 mph N/A   Clear
12:15 PM 52.7 °F - 39.4 °F 61% 29.78 in 10.0 mi ESE 10.4 mph - N/A   Clear
12:35 PM 53.6 °F - 39.2 °F 58% 29.77 in 10.0 mi SE 16.1 mph 23.0 mph N/A   Clear
12:55 PM 54.0 °F - 39.4 °F 58% 29.75 in 10.0 mi ESE 13.8 mph 21.9 mph N/A   Clear
1:15 PM 55.8 °F - 39.4 °F 54% 29.74 in 10.0 mi SE 17.3 mph 27.6 mph N/A   Clear
1:35 PM 57.2 °F - 39.7 °F 52% 29.73 in 10.0 mi SE 19.6 mph 23.0 mph N/A   Clear
1:55 PM 59.0 °F - 39.6 °F 49% 29.72 in 10.0 mi SE 16.1 mph 25.3 mph N/A   Clear
2:15 PM 59.2 °F - 39.6 °F 48% 29.71 in 10.0 mi SE 17.3 mph 24.2 mph N/A   Clear
2:35 PM 60.4 °F - 39.4 °F 46% 29.70 in 10.0 mi SE 17.3 mph 24.2 mph N/A   Clear
2:55 PM 61.2 °F - 39.2 °F 44% 29.69 in 10.0 mi SSE 19.6 mph 24.2 mph N/A   Clear
3:15 PM 60.4 °F - 38.3 °F 44% 29.68 in 10.0 mi SE 23.0 mph 29.9 mph N/A   Clear
3:35 PM 60.6 °F - 38.7 °F 44% 29.68 in 10.0 mi SE 20.7 mph 31.1 mph N/A   Clear
3:55 PM 60.1 °F - 39.0 °F 46% 29.67 in 10.0 mi SE 20.7 mph 27.6 mph N/A   Clear
4:15 PM 60.8 °F - 39.2 °F 45% 29.67 in 10.0 mi SE 21.9 mph 28.8 mph N/A   Clear
4:35 PM 60.8 °F - 39.7 °F 46% 29.67 in 10.0 mi SE 16.1 mph 24.2 mph N/A   Clear
4:55 PM 60.4 °F - 39.6 °F 46% 29.66 in 10.0 mi ESE 13.8 mph 23.0 mph N/A   Clear
5:15 PM 59.4 °F - 39.6 °F 48% 29.65 in 10.0 mi SE 18.4 mph 24.2 mph N/A   Clear
5:35 PM 58.6 °F - 39.4 °F 49% 29.65 in 10.0 mi SE 17.3 mph 29.9 mph N/A   Clear
5:55 PM 57.9 °F - 39.0 °F 49% 29.65 in 10.0 mi SE 19.6 mph 28.8 mph N/A   Clear
6:15 PM 57.2 °F - 38.8 °F 50% 29.64 in 10.0 mi SE 18.4 mph 26.5 mph N/A   Clear
6:35 PM 56.7 °F - 39.2 °F 52% 29.64 in 10.0 mi SE 19.6 mph 27.6 mph N/A   Clear
6:55 PM 55.6 °F - 39.2 °F 54% 29.64 in 10.0 mi ESE 12.7 mph 24.2 mph N/A   Clear
7:15 PM 55.8 °F - 39.4 °F 54% 29.65 in 10.0 mi SE 13.8 mph 25.3 mph N/A   Clear
7:35 PM 52.5 °F - 39.6 °F 61% 29.67 in 10.0 mi ESE 8.1 mph - N/A   Clear
7:55 PM 54.0 °F - 39.7 °F 59% 29.68 in 10.0 mi SE 10.4 mph - N/A   Scattered Clouds
8:15 PM 53.8 °F - 39.9 °F 59% 29.68 in 10.0 mi SE 9.2 mph 16.1 mph N/A   Clear
8:35 PM 53.8 °F - 39.9 °F 59% 29.68 in 10.0 mi SE 10.4 mph - N/A   Clear
8:55 PM 53.1 °F - 40.1 °F 61% 29.68 in 10.0 mi SE 11.5 mph 17.3 mph N/A   Scattered Clouds
9:15 PM 52.9 °F - 40.1 °F 62% 29.68 in 10.0 mi SE 10.4 mph - N/A   Scattered Clouds
9:35 PM 52.7 °F - 40.1 °F 62% 29.68 in 10.0 mi SE 12.7 mph - N/A   Mostly Cloudy
9:55 PM 52.9 °F - 39.9 °F 61% 29.68 in 10.0 mi SE 9.2 mph - N/A   Mostly Cloudy
10:15 PM 53.1 °F - 40.1 °F 61% 29.68 in 10.0 mi SE 12.7 mph 18.4 mph N/A   Overcast
10:35 PM 53.6 °F - 40.1 °F 60% 29.68 in 10.0 mi SE 15.0 mph 18.4 mph N/A   Overcast
10:55 PM 54.5 °F - 39.9 °F 58% 29.67 in 10.0 mi SSE 13.8 mph 23.0 mph N/A   Overcast
11:15 PM 54.9 °F - 39.7 °F 57% 29.67 in 10.0 mi SSE 17.3 mph 23.0 mph N/A   Overcast
11:35 PM 54.5 °F - 39.9 °F 58% 29.67 in 10.0 mi SSE 16.1 mph 23.0 mph N/A   Overcast
11:55 PM 54.5 °F - 39.9 °F 58% 29.67 in 10.0 mi SSE 16.1 mph 23.0 mph N/A   Overcast